SURFSAT (43614 NORAD) Tracking and Keplerian Element Data

This shows tracking and keplerian element data for the satellite.

Feedback or suggestion? Click here.




ElementValue
Catalog43614
NameSURFSAT
Epoch Orbit3356
Epoch Day112.1228621
Epoch Year2019
RAAN339.9246
Inclination93.0283
Eccentricity0.0016988
Argument of Perigee158.7386
Mean Anonmoly201.4577
Mean Motion15.37264494
Decay Rate2.226E-05
L11 43614U 18070B 19112.12286210 .00002226 00000-0 60974-4 0 9992
L22 43614 93.0283 339.9246 0016988 158.7386 201.4577 15.37264494 33569

Live tracking and technical data element details for SURFSAT (NORAD 43614). SURFSAT can be tracked NOW for your location showing map with azimuth and elevation plus other details from your city location.

Track the satellite on the map from your city or location and see movement details for azimuth, elevation, latitude, longitude, range, height, and movement on the map or in text.







IsCatalogInMostPopularTable: catalog: 43614, numindb: 92
Update: records affected: 1



GetName: 43614 SURFSAT

Hit Count: updated at: Tue, 23 Apr 2019 20:59:05 GMT